VA3ECP Weather Reports


time (UTC)temp
C
wind
direction
speed
KPH
gust
KPH
rain 1hr
cm
rain 24hr
cm
rain mn
cm
humidity
%
barometer
mb
20260508104536 5 128 1.6 8.0 0.00 0.00 0.00 74 1010.2
20260508103525 5 1.6 9.7 0.00 0.00 0.00 74 1010.1
20260508102526 5 0.0 0.0 0.00 0.00 0.00 74 1010.0
20260508101522 5 0.0 0.0 0.00 0.00 0.00 74 1009.9
20260508100523 5 0.0 0.0 0.00 0.00 0.00 74 1009.8
20260508095527 5 0.0 0.0 0.00 0.00 0.00 73 1009.8
20260508094519 5 0.0 0.0 0.00 0.00 0.00 73 1009.8
20260508093521 5 0.0 0.0 0.00 0.00 0.00 73 1009.7
20260508092522 5 0.0 0.0 0.00 0.00 0.00 73 1009.7
20260508091633 5 0.0 9.7 0.00 0.00 0.00 73 1009.6
20260508090519 5 45 1.6 12.9 0.00 0.00 0.00 73 1009.7
20260508085526 5 169 0.0 4.8 0.00 0.00 0.00 73 1009.7
20260508084520 5 328 1.6 9.7 0.00 0.00 0.00 72 1009.6
20260508083523 5 203 1.6 12.9 0.00 0.00 0.00 72 1009.6
20260508082537 5 293 1.6 12.9 0.00 0.00 0.00 71 1009.6
20260508081626 5 127 3.2 9.7 0.00 0.00 0.00 71 1009.6
20260508080635 5 0.0 0.0 0.00 0.00 0.00 71 1009.5
20260508075525 6 270 1.6 9.7 0.00 0.00 0.00 71 1009.4
20260508074535 6 180 1.6 8.0 0.00 0.00 0.00 70 1009.4
20260508073521 6 253 3.2 9.7 0.00 0.00 0.00 69 1009.4
20260508072531 6 225 1.6 8.0 0.00 0.00 0.00 69 1009.3
20260508071537 6 229 1.6 8.0 0.00 0.00 0.00 68 1009.2
20260508070519 6 327 6.4 17.7 0.00 0.00 0.00 69 1009.2
20260508065529 6 276 4.8 12.9 0.00 0.00 0.00 69 1009.3
20260508064520 6 68 0.0 4.8 0.00 0.00 0.00 69 1009.2
20260508063519 6 225 1.6 12.9 0.00 0.00 0.00 69 1009.2
20260508062522 6 17 3.2 9.7 0.00 0.00 0.00 69 1009.2
20260508061523 6 293 1.6 14.5 0.00 0.00 0.00 69 1009.2
20260508060521 6 288 1.6 8.0 0.00 0.00 0.00 69 1009.3
20260508055522 6 0.0 4.8 0.00 0.00 0.00 69 1009.3
20260508054535 6 0.0 0.0 0.00 0.00 0.00 69 1009.4
20260508053525 6 0.0 0.0 0.00 0.00 0.00 69 1009.4
20260508052523 6 225 3.2 17.7 0.00 0.00 0.00 69 1009.4
20260508051524 6 0.0 0.0 0.00 0.00 0.00 69 1009.3
20260508050521 6 270 1.6 12.9 0.00 0.00 0.00 69 1009.3
20260508045520 6 243 1.6 14.5 0.00 0.00 0.00 68 1009.4
20260508044528 6 266 3.2 14.5 0.00 0.00 0.00 68 1009.4
20260508043538 6 285 1.6 12.9 0.00 0.00 0.00 68 1009.4
20260508041535 6 180 1.6 14.5 0.00 0.00 0.00 68 1009.4
20260508040522 6 0.0 0.0 0.00 0.00 0.00 68 1009.4
20260508035532 5 0.0 0.0 0.00 0.00 0.00 69 1009.4
20260508034520 5 0.0 0.0 0.00 0.00 0.00 69 1009.3
20260508033528 5 0.0 0.0 0.00 0.00 0.00 70 1009.4
20260508032521 5 0.0 0.0 0.00 0.00 0.00 70 1009.3
20260508031528 5 0.0 0.0 0.00 0.00 0.00 70 1009.3
20260508030523 5 0.0 0.0 0.00 0.00 0.00 68 1009.3
20260508025523 5 0.0 0.0 0.00 0.00 0.00 67 1009.3
20260508024521 6 0.0 0.0 0.00 0.00 0.00 66 1009.3
20260508022529 6 0.0 0.0 0.00 0.00 0.00 64 1009.3
20260508020520 7 0.0 0.0 0.00 0.00 0.00 62 1009.3
20260508015525 7 0.0 0.0 0.00 0.00 0.00 61 1009.3
20260508014527 8 0.0 0.0 0.00 0.00 0.00 60 1009.2
20260508013531 8 302 1.6 12.9 0.00 0.00 0.00 59 1009.1
20260508011525 8 0.0 4.8 0.00 0.00 0.00 59 1009.0
20260508010525 8 280 3.2 12.9 0.00 0.00 0.00 57 1008.9
20260508005526 9 270 3.2 12.9 0.00 0.00 0.00 57 1008.8
20260508004522 9 270 1.6 12.9 0.00 0.00 0.00 56 1008.6
20260508003524 9 286 3.2 19.3 0.00 0.00 0.00 55 1008.5
20260508002529 9 0.0 9.7 0.00 0.00 0.00 54 1008.4
20260508001522 10 258 3.2 9.7 0.00 0.00 0.00 54 1008.3
20260508000522 10 0.0 0.0 0.00 0.00 0.00 53 1008.2
20260507235523 10 180 1.6 9.7 0.00 0.00 0.00 52 1008.2
20260507234523 10 340 1.6 9.7 0.00 0.00 0.00 52 1008.2
20260507233526 10 263 4.8 12.9 0.00 0.00 0.00 52 1008.2
20260507232524 11 225 1.6 8.0 0.00 0.00 0.00 52 1008.2
20260507231529 11 270 1.6 9.7 0.00 0.00 0.00 51 1008.1
20260507230522 11 0.0 0.0 0.00 0.00 0.00 50 1008.1
20260507225534 11 356 1.6 9.7 0.00 0.00 0.00 50 1008.1
20260507224519 11 251 6.4 17.7 0.00 0.00 0.00 49 1008.1
20260507223532 11 281 1.6 8.0 0.00 0.00 0.00 48 1008.1
20260507222522 11 335 4.8 19.3 0.00 0.00 0.00 49 1008.1
20260507221519 11 25 4.8 14.5 0.00 0.00 0.00 49 1008.1
20260507220530 11 102 8.0 14.5 0.00 0.00 0.00 48 1008.1
20260507215523 11 16 6.4 14.5 0.00 0.00 0.00 48 1008.1
20260507214525 12 51 4.8 12.9 0.00 0.00 0.00 49 1008.2
20260507213520 12 333 3.2 14.5 0.00 0.00 0.00 47 1008.1
20260507212528 12 342 6.4 19.3 0.00 0.00 0.00 48 1008.1
20260507211520 13 132 8.0 14.5 0.00 0.00 0.00 46 1008.0
20260507210520 13 319 9.7 22.5 0.00 0.00 0.00 46 1008.0
20260507205534 13 335 12.9 22.5 0.00 0.00 0.00 45 1008.1
20260507204524 12 353 4.8 14.5 0.00 0.00 0.00 47 1008.1
20260507203524 13 249 8.0 27.4 0.00 0.00 0.00 46 1008.0
20260507202521 14 164 8.0 29.0 0.00 0.00 0.00 46 1008.1
20260507201521 13 54 9.7 17.7 0.00 0.00 0.00 46 1008.1
20260507200521 13 132 8.0 27.4 0.00 0.00 0.00 47 1008.3
20260507193520 13 116 9.7 22.5 0.00 0.00 0.00 47 1008.4
20260507192532 12 288 9.7 17.7 0.00 0.00 0.00 48 1008.5
20260507191522 12 125 12.9 27.4 0.00 0.00 0.00 49 1008.6
20260507190529 12 54 12.9 33.8 0.00 0.00 0.00 48 1008.7
20260507185520 12 61 6.4 17.7 0.00 0.00 0.00 49 1008.7
20260507184622 12 305 12.9 27.4 0.00 0.00 0.00 48 1008.8
20260507183519 13 282 14.5 32.2 0.00 0.00 0.00 48 1008.8
20260507182523 12 44 14.5 24.1 0.00 0.00 0.00 48 1008.9
20260507181522 13 73 12.9 32.2 0.00 0.00 0.00 49 1009.0
20260507180521 12 324 8.0 22.5 0.00 0.00 0.00 50 1009.0
20260507175520 11 23 11.3 29.0 0.00 0.00 0.00 51 1009.0
20260507174531 11 7 16.1 33.8 0.00 0.00 0.00 49 1009.0
20260507173519 11 58 12.9 22.5 0.00 0.00 0.00 49 1009.0
20260507172524 12 334 6.4 14.5 0.00 0.00 0.00 51 1009.0
20260507171526 12 281 16.1 27.4 0.00 0.00 0.00 49 1009.1
20260507170534 12 104 14.5 22.5 0.00 0.00 0.00 50 1009.2
20260507165523 11 239 6.4 24.1 0.00 0.00 0.00 50 1009.2
20260507164651 12 146 12.9 19.3 0.00 0.00 0.00 50 1009.2
20260507163520 11 16 11.3 17.7 0.00 0.00 0.00 51 1009.3
20260507162526 11 184 8.0 19.3 0.00 0.00 0.00 51 1009.4
20260507161527 11 355 12.9 24.1 0.00 0.00 0.00 54 1009.5
20260507160524 10 107 9.7 17.7 0.00 0.00 0.00 56 1009.5
20260507155523 10 176 9.7 27.4 0.00 0.00 0.00 54 1009.5
20260507154521 11 38 16.1 29.0 0.00 0.00 0.00 50 1009.6
20260507153522 10 192 17.7 32.2 0.00 0.00 0.00 54 1009.8
20260507152521 11 62 16.1 27.4 0.00 0.00 0.00 52 1009.6
20260507150524 11 75 9.7 19.3 0.00 0.00 0.00 54 1009.8
20260507145520 12 7 11.3 32.2 0.00 0.00 0.00 54 1009.6
20260507144521 11 10 19.3 38.6 0.00 0.00 0.00 54 1009.7
20260507143522 11 230 20.9 43.5 0.00 0.00 0.00 54 1009.6
20260507142523 10 316 9.7 19.3 0.00 0.00 0.00 58 1009.5
20260507141519 10 289 8.0 22.5 0.00 0.00 0.00 59 1009.6
20260507140527 10 68 14.5 29.0 0.00 0.00 0.00 59 1009.7
20260507135535 10 296 16.1 38.6 0.00 0.00 0.00 57 1009.7
20260507134524 10 302 12.9 22.5 0.00 0.00 0.00 57 1009.7
20260507133524 10 185 9.7 29.0 0.00 0.00 0.00 60 1009.9
20260507132522 9 296 9.7 27.4 0.00 0.00 0.00 61 1009.9
20260507131531 8 310 9.7 19.3 0.00 0.00 0.00 63 1009.9
20260507125527 7 174 8.0 12.9 0.00 0.00 0.00 66 1009.9
20260507124535 7 13 16.1 27.4 0.00 0.00 0.00 66 1009.8
20260507123550 7 131 14.5 33.8 0.00 0.00 0.00 67 1009.8
20260507122519 6 124 11.3 24.1 0.00 0.00 0.00 67 1009.8
20260507121522 6 236 6.4 17.7 0.00 0.00 0.00 68 1009.7
20260507120530 6 154 4.8 14.5 0.00 0.00 0.00 69 1009.8
20260507115519 6 285 9.7 14.5 0.00 0.00 0.00 70 1009.8
20260507114528 5 90 12.9 19.3 0.00 0.00 0.00 71 1009.8
20260507113520 5 48 8.0 17.7 0.00 0.00 0.00 72 1009.7
20260507112520 5 182 9.7 22.5 0.00 0.00 0.00 72 1009.5
20260507111524 4 71 6.4 17.7 0.00 0.00 0.00 73 1009.5
20260507110522 4 356 8.0 14.5 0.00 0.00 0.00 73 1009.4
20260507105527 4 320 4.8 12.9 0.00 0.00 0.00 74 1009.3